CW4772 Weather Reports


time (UTC)temp
C
wind
direction
speed
KPH
gust
KPH
rain 1hr
cm
rain 24hr
cm
rain mn
cm
humidity
%
barometer
mb
20260905221705 11 289 1.6 4.8 0.00 0.30 0.00 83 1022.2
20260905220204 11 305 1.6 4.8 0.00 0.30 0.00 83 1022.1
20260905215204 12 290 1.6 11.3 0.00 0.30 0.30 83 1022.2
20260905213204 13 283 3.2 11.3 0.00 0.30 0.30 77 1021.9
20260905212704 13 286 3.2 9.7 0.00 0.30 0.30 76 1021.9
20260905212204 13 294 3.2 11.3 0.00 0.30 0.30 76 1021.8
20260905211704 13 288 4.8 11.3 0.00 0.30 0.30 76 1021.7
20260905211204 14 292 3.2 9.7 0.00 0.30 0.30 76 1021.7
20260905205704 14 286 3.2 4.8 0.00 0.30 0.30 75 1021.4
20260905205205 14 299 3.2 4.8 0.00 0.30 0.30 74 1021.3
20260905204205 15 280 3.2 9.7 0.00 0.30 0.30 74 1021.4
20260905202705 15 282 4.8 12.9 0.00 0.30 0.30 74 1021.1
20260905202204 15 285 8.0 12.9 0.00 0.30 0.30 74 1021.1
20260905201704 16 283 4.8 12.9 0.00 0.30 0.30 75 1021.1
20260905200705 15 284 3.2 11.3 0.00 0.30 0.30 79 1020.9
20260905200206 15 283 4.8 11.3 0.00 0.30 0.30 81 1020.9
20260905195703 15 288 3.2 11.3 0.00 0.30 0.30 83 1020.9
20260905194703 15 272 1.6 9.7 0.00 0.30 0.30 85 1020.8
20260905192203 16 286 1.6 12.9 0.00 0.30 0.30 79 1020.3
20260905191703 16 293 4.8 12.9 0.00 0.30 0.30 78 1020.2
20260905191203 16 293 4.8 12.9 0.00 0.30 0.30 77 1020.2
20260905190703 17 288 6.4 14.5 0.00 0.30 0.30 77 1020.2
20260905185703 17 288 8.0 19.3 0.00 0.30 0.30 76 1020.1
20260905185203 17 294 8.0 19.3 0.00 0.30 0.30 76 1019.9
20260905184703 17 286 4.8 22.5 0.00 0.30 0.30 76 1019.8
20260905182203 17 295 4.8 16.1 0.00 0.30 0.30 77 1019.3
20260905181703 17 276 3.2 16.1 0.00 0.30 0.30 76 1019.3
20260905181204 17 292 4.8 19.3 0.00 0.30 0.30 76 1019.3
20260905180204 17 267 4.8 12.9 0.00 0.30 0.30 76 1019.2
20260905175703 17 279 4.8 12.9 0.00 0.30 0.30 75 1019.1
20260905175204 17 279 4.8 14.5 0.00 0.30 0.30 76 1019.0
20260905174703 17 278 4.8 16.1 0.00 0.30 0.30 75 1019.0
20260905173203 17 289 4.8 19.3 0.00 0.30 0.30 74 1018.8
20260905172203 17 282 4.8 14.5 0.00 0.30 0.30 73 1018.6
20260905171704 18 282 6.4 14.5 0.00 0.30 0.30 73 1018.6
20260905170703 18 289 3.2 16.1 0.00 0.30 0.30 73 1018.5
20260905165704 18 287 4.8 16.1 0.00 0.30 0.30 72 1018.4
20260905165205 18 279 8.0 14.5 0.00 0.30 0.30 72 1018.4
20260905164704 18 286 6.4 16.1 0.00 0.30 0.30 71 1018.3
20260905163703 18 290 8.0 24.1 0.00 0.30 0.30 70 1018.3
20260905161703 19 311 3.2 24.1 0.00 0.30 0.30 68 1018.2
20260905161204 19 286 9.7 24.1 0.00 0.30 0.30 66 1018.1
20260905160704 19 291 8.0 22.5 0.00 0.30 0.30 67 1018.1
20260905153203 20 282 6.4 19.3 0.00 0.30 0.30 64 1017.9
20260905152705 20 286 8.0 20.9 0.00 0.30 0.30 65 1018.0
20260905152205 20 264 9.7 32.2 0.00 0.30 0.30 66 1018.1
20260905151203 20 291 11.3 32.2 0.00 0.30 0.30 64 1018.1
20260905145703 20 247 9.7 25.7 0.00 0.30 0.30 64 1017.9
20260905145204 20 285 9.7 24.1 0.00 0.30 0.30 63 1017.7
20260905144703 20 283 11.3 24.1 0.00 0.30 0.30 63 1017.7
20260905143704 20 243 14.5 32.2 0.00 0.30 0.30 64 1017.8
20260905143203 20 259 11.3 27.4 0.00 0.30 0.30 64 1017.8
20260905142703 20 278 11.3 32.2 0.00 0.30 0.30 64 1017.8
20260905141704 21 266 12.9 29.0 0.00 0.30 0.30 62 1018.0
20260905140203 21 288 14.5 25.7 0.00 0.30 0.30 64 1018.0
20260905135703 20 299 11.3 35.4 0.00 0.30 0.30 62 1018.0
20260905133704 21 300 11.3 29.0 0.00 0.30 0.30 63 1017.9
20260905133204 21 289 16.1 29.0 0.00 0.30 0.30 62 1017.9
20260905132203 21 284 14.5 32.2 0.00 0.30 0.30 63 1018.2
20260905131704 20 313 11.3 29.0 0.00 0.30 0.30 64 1018.0
20260905131203 21 299 9.7 32.2 0.00 0.30 0.30 65 1018.2
20260905130704 21 281 16.1 32.2 0.00 0.30 0.30 64 1018.1
20260905130204 21 276 12.9 32.2 0.00 0.30 0.30 65 1018.3
20260905124204 20 264 12.9 35.4 0.00 0.30 0.30 64 1018.2
20260905123704 21 281 11.3 35.4 0.00 0.30 0.30 65 1018.2
20260905123204 20 286 16.1 33.8 0.00 0.30 0.30 64 1018.2
20260905122203 20 277 11.3 35.4 0.00 0.30 0.30 62 1018.5
20260905121203 20 273 12.9 32.2 0.00 0.30 0.30 63 1018.4
20260905120703 20 288 16.1 32.2 0.00 0.30 0.30 62 1018.5
20260905120204 19 296 16.1 32.2 0.00 0.30 0.30 63 1018.5
20260905115203 20 296 8.0 32.2 0.00 0.30 0.30 67 1018.3
20260905114704 20 289 16.1 32.2 0.00 0.30 0.30 62 1018.3
20260905113703 20 272 12.9 27.4 0.00 0.30 0.30 67 1018.4
20260905111704 19 287 11.3 24.1 0.00 0.30 0.30 66 1018.4
20260905111203 19 274 14.5 24.1 0.00 0.30 0.30 66 1018.4
20260905105704 18 288 14.5 29.0 0.00 0.30 0.30 67 1018.3
20260905105203 19 292 14.5 25.7 0.00 0.30 0.30 66 1018.3
20260905104203 18 286 16.1 35.4 0.00 0.30 0.30 69 1018.2
20260905103204 19 246 11.3 20.9 0.00 0.30 0.30 72 1018.2
20260905102704 18 245 11.3 24.1 0.00 0.30 0.30 71 1018.2
20260905100204 18 282 9.7 24.1 0.00 0.30 0.30 75 1018.2
20260905095704 18 249 8.0 25.7 0.00 0.30 0.30 77 1018.2
20260905095205 17 276 8.0 25.7 0.00 0.30 0.30 77 1018.3
20260905094203 17 255 6.4 24.1 0.00 0.30 0.30 77 1018.3
20260905093203 17 247 11.3 22.5 0.00 0.30 0.30 79 1018.4
20260905092703 17 251 6.4 22.5 0.00 0.30 0.30 81 1018.4
20260905091703 16 241 9.7 25.7 0.00 0.30 0.30 82 1018.4
20260905090704 15 264 11.3 24.1 0.00 0.30 0.30 84 1018.4
20260905085704 15 236 9.7 24.1 0.00 0.30 0.30 85 1018.2
20260905085203 16 247 9.7 20.9 0.00 0.30 0.30 85 1018.1
20260905084704 15 233 9.7 19.3 0.00 0.30 0.30 88 1018.0
20260905083204 15 222 9.7 24.1 0.00 0.30 0.30 88 1017.8
20260905081704 15 241 9.7 20.9 0.00 0.30 0.30 91 1017.8
20260905081204 14 235 4.8 14.5 0.00 0.30 0.30 93 1017.8
20260905080204 13 231 4.8 14.5 0.00 0.30 0.30 95 1017.6
20260905075704 13 225 4.8 11.3 0.00 0.30 0.30 94 1017.6
20260905075204 13 218 3.2 9.7 0.00 0.30 0.30 95 1017.5
20260905074704 13 276 3.2 11.3 0.00 0.30 0.30 95 1017.6
20260905074204 13 295 1.6 12.9 0.00 0.30 0.30 95 1017.5
20260905073204 13 269 3.2 12.9 0.00 0.30 0.30 96 1017.3
20260905072703 13 252 3.2 16.1 0.00 0.30 0.30 96 1017.1
20260905072204 13 262 8.0 16.1 0.00 0.30 0.30 96 1017.0
20260905071204 13 268 3.2 16.1 0.00 0.30 0.30 97 1016.8
20260905070203 13 229 1.6 16.1 0.03 0.30 0.30 97 1016.8
20260905065704 13 301 3.2 16.1 0.03 0.30 0.30 97 1016.9
20260905065203 12 255 1.6 11.3 0.03 0.30 0.30 97 1016.8
20260905064703 12 267 4.8 11.3 0.05 0.30 0.30 97 1016.6
20260905063204 12 259 1.6 11.3 0.13 0.30 0.30 96 1016.7
20260905062703 12 206 1.6 12.9 0.15 0.30 0.30 97 1016.5
20260905062204 12 221 4.8 14.5 0.15 0.30 0.30 96 1016.4
20260905061704 12 215 4.8 14.5 0.18 0.30 0.30 96 1016.3
20260905061204 12 206 9.7 14.5 0.20 0.30 0.30 96 1016.1
20260905060704 12 204 8.0 14.5 0.23 0.30 0.30 96 1016.6
20260905060204 12 216 8.0 14.5 0.20 0.28 0.28 96 1016.9
20260905055704 12 195 3.2 12.9 0.23 0.28 0.28 96 1017.1
20260905055204 12 222 4.8 12.9 0.20 0.28 0.28 96 1017.3
20260905054704 12 222 1.6 8.0 0.18 0.25 0.25 96 1017.3
20260905053704 12 259 1.6 4.8 0.15 0.20 0.20 95 1017.3
20260905052204 12 283 4.8 9.7 0.10 0.15 0.15 94 1017.0
20260905051205 12 282 6.4 19.3 0.08 0.10 0.10 93 1017.0
20260905050704 13 292 8.0 19.3 0.05 0.10 0.10 93 1017.1
20260905045704 13 285 6.4 19.3 0.03 0.08 0.08 92 1016.9
20260905045204 13 299 4.8 19.3 0.03 0.08 0.08 92 1016.4
20260905044704 13 281 6.4 19.3 0.03 0.08 0.08 92 1016.4
20260905044204 13 300 8.0 16.1 0.03 0.05 0.05 92 1016.2
20260905043705 13 284 6.4 16.1 0.00 0.03 0.03 94 1016.1
20260905041203 13 276 1.6 4.8 0.03 0.03 0.03 94 1015.9
20260905040703 13 284 3.2 4.8 0.03 0.03 0.03 93 1015.9
20260905035703 13 294 0.0 4.8 0.03 0.03 0.03 93 1015.8
20260905032704 14 294 1.6 4.8 0.03 0.03 0.03 90 1015.3
20260905032203 14 275 3.2 4.8 0.03 0.03 0.03 90 1015.4
20260905031704 14 313 1.6 9.7 0.03 0.03 0.03 89 1015.4
20260905031204 15 290 1.6 19.3 0.03 0.03 0.03 87 1014.9
20260905030704 15 277 3.2 19.3 0.00 0.00 0.00 84 1015.1
20260905024704 15 299 1.6 4.8 0.00 0.00 0.00 82 1014.4
20260905024204 15 297 1.6 8.0 0.00 0.00 0.00 82 1014.4
20260905023703 15 30 3.2 8.0 0.00 0.00 0.00 81 1014.4
20260905022704 16 338 4.8 12.9 0.00 0.00 0.00 79 1014.8
20260905021704 16 295 8.0 16.1 0.00 0.00 0.00 78 1014.6
20260905020705 16 352 1.6 9.7 0.00 0.00 0.00 79 1013.7
20260905020204 16 0 3.2 12.9 0.00 0.00 0.00 79 1013.6
20260905015704 16 353 3.2 12.9 0.00 0.00 0.00 80 1013.5
20260905012704 16 312 1.6 11.3 0.00 0.00 0.00 81 1013.7
20260905011704 16 26 3.2 19.3 0.00 0.00 0.00 82 1013.4
20260905010704 16 5 4.8 24.1 0.00 0.00 0.00 83 1013.3
20260905005706 16 12 9.7 24.1 0.00 0.00 0.00 85 1013.3
20260905005204 16 16 11.3 25.7 0.00 0.00 0.00 85 1013.4
20260905004704 16 19 11.3 32.2 0.00 0.00 0.00 85 1013.3
20260905003705 17 29 16.1 40.2 0.00 0.00 0.00 84 1013.1
20260905002704 18 21 22.5 46.7 0.00 0.00 0.00 82 1012.9
20260905001703 17 280 1.6 3.2 0.00 0.00 0.00 85 1011.6
20260905001204 17 251 0.0 4.8 0.00 0.00 0.00 84 1011.5
20260905000204 17 252 0.0 4.8 0.00 0.00 0.00 84 1011.4
20260904235704 17 244 0.0 3.2 0.00 0.00 0.00 84 1011.4
20260904234706 17 275 1.6 4.8 0.00 0.00 0.00 84 1011.4
20260904233704 16 269 1.6 3.2 0.00 0.00 0.00 85 1011.3
20260904232704 16 270 0.0 3.2 0.00 0.00 0.00 87 1011.2
20260904232203 16 270 0.0 1.6 0.00 0.00 0.00 85 1011.2
20260904230705 17 270 0.0 3.2 0.00 0.00 0.00 84 1011.1
20260904230204 17 270 0.0 4.8 0.00 0.00 0.00 85 1011.0
20260904225704 17 270 1.6 4.8 0.00 0.00 0.00 86 1011.0
20260904225204 16 217 0.0 3.2 0.00 0.00 0.00 87 1011.0
20260904224704 16 217 0.0 0.0 0.00 0.00 0.00 88 1010.9
20260904224204 16 217 0.0 0.0 0.00 0.00 0.00 88 1011.0
20260904223704 16 217 0.0 0.0 0.00 0.00 0.00 88 1011.0